{"data":{"norad_id":60331,"epoch":"2026-09-21T15:10:48.451872Z","epoch_age_seconds":87594,"freshness":"FRESH","line1":"1 60331U 24136C   26264.63250523 -.00000919  00000+0 -16072-4 0  9995","line2":"2 60331  53.1577 232.0908 0001269  94.1573 265.9574 15.34384754119850","mean_motion":15.34384754,"eccentricity":0.0001269,"inclination_deg":53.1577,"raan_deg":232.0908,"arg_perigee_deg":94.1573,"mean_anomaly_deg":265.9574,"bstar":-1.6072e-5,"rev_number":11985,"period_min":93.848690574255,"perigee_km":461.88044653035,"apogee_km":463.61666328418,"semimajor_km":6840.8855549073,"source":"CELESTRAK","updated_at":"2026-09-22T09:00:49.219107Z"}}